This is the latest recevied weather packets stored in our database for station/object KC8SWY-15. If no packets are shown the sender has not sent any weather packets the latest 10 day(s).
| Time | Temp. | Humidity | Pressure | Rain* | Wind** | Luminosity | Snow |
|---|---|---|---|---|---|---|---|
| 1777839277 | 11.67° C | 60% | 1011.7 hPa | 0 mm | - | - | - |
| 1777838977 | 12.22° C | 60% | 1012 hPa | 0 mm | - | - | - |
| 1777838677 | 12.22° C | 59% | 1011.9 hPa | 0 mm | - | - | - |
| 1777838378 | 12.78° C | 57% | 1012 hPa | 0 mm | - | - | - |
| 1777838077 | 12.78° C | 55% | 1012 hPa | 0 mm | - | - | - |
| 1777837778 | 13.33° C | 55% | 1012 hPa | 0 mm | - | - | - |
| 1777837477 | 13.89° C | 57% | 1012 hPa | 0 mm | - | - | - |
| 1777837178 | 13.89° C | 58% | 1011.9 hPa | 0 mm | - | - | - |
| 1777836878 | 13.89° C | 55% | 1011.7 hPa | 0 mm | - | - | - |
| 1777836578 | 13.89° C | 54% | 1012 hPa | 0 mm | - | - | - |
| 1777836278 | 14.44° C | 54% | 1011.9 hPa | 0 mm | - | - | - |
| 1777835978 | 14.44° C | 55% | 1011.9 hPa | 0 mm | - | - | - |
| 1777835678 | 13.89° C | 55% | 1012.1 hPa | 0 mm | - | - | - |
| 1777835378 | 13.89° C | 54% | 1012.1 hPa | 0 mm | - | - | - |
| 1777835078 | 14.44° C | 53% | 1012.1 hPa | 0 mm | - | - | - |
| 1777834778 | 15° C | 50% | 1012 hPa | 0 mm | - | - | - |
| 1777834478 | 15° C | 50% | 1011.9 hPa | 0 mm | - | - | - |
| 1777834178 | 15° C | 49% | 1012 hPa | 0 mm | - | - | - |
| 1777833878 | 15° C | 50% | 1012 hPa | 0 mm | - | - | - |
| 1777833578 | 15° C | 47% | 1012 hPa | 0 mm | - | - | - |
| 1777833278 | 15.56° C | 47% | 1011.8 hPa | 0 mm | - | - | - |
| 1777832978 | 15.56° C | 45% | 1011.8 hPa | 0 mm | - | - | - |
| 1777832678 | 15.56° C | 45% | 1012 hPa | 0 mm | - | - | - |
| 1777832378 | 15.56° C | 44% | 1012 hPa | 0 mm | - | - | - |
| 1777832078 | 15.56° C | 43% | 1012.1 hPa | 0 mm | - | - | - |
* Rain latest hour (hover to see other rain measurements)
** Current wind speed in m/s (hover to see current wind gust speed)